| time (UTC) | temp F | wind direction | speed MPH | gust MPH | rain 1hr in | rain 24hr in | rain mn in | humidity % | barometer mb |
| 20260510173058 | 51 | 338 | 1.0 | 6.0 | 0.00 | 0.00 | 0.00 | 55 | 1016.9 |
| 20260510171555 | 53 | 10 | 2.0 | 7.0 | 0.00 | 0.00 | 0.00 | 54 | 1016.9 |
| 20260510170050 | 53 | 115 | 1.0 | 7.0 | 0.00 | 0.00 | 0.00 | 54 | 1017.0 |
| 20260510164548 | 54 | 153 | 1.0 | 8.0 | 0.00 | 0.00 | 0.00 | 53 | 1017.1 |
| 20260510163046 | 53 | 326 | 2.0 | 9.0 | 0.00 | 0.00 | 0.00 | 54 | 1017.4 |
| 20260510161644 | 53 | 349 | 3.0 | 9.0 | 0.00 | 0.00 | 0.00 | 52 | 1017.5 |
| 20260510160046 | 55 | 146 | 2.0 | 8.0 | 0.00 | 0.00 | 0.00 | 51 | 1017.5 |
| 20260510154545 | 56 | 43 | 2.0 | 8.0 | 0.00 | 0.00 | 0.00 | 50 | 1017.6 |
| 20260510153042 | 55 | 340 | 3.0 | 13.0 | 0.00 | 0.00 | 0.00 | 52 | 1017.7 |
| 20260510151543 | 56 | 96 | 1.0 | 6.0 | 0.00 | 0.00 | 0.00 | 51 | 1017.8 |
| 20260510150039 | 56 | 351 | 2.0 | 9.0 | 0.00 | 0.00 | 0.00 | 51 | 1018.0 |
| 20260510144536 | 55 | 103 | 3.0 | 11.0 | 0.00 | 0.00 | 0.00 | 54 | 1018.2 |
| 20260510143037 | 55 | 32 | 4.0 | 10.0 | 0.00 | 0.00 | 0.00 | 54 | 1018.3 |
| 20260510141532 | 54 | 75 | 3.0 | 9.0 | 0.00 | 0.00 | 0.00 | 57 | 1018.5 |
| 20260510140031 | 55 | 22 | 2.0 | 13.0 | 0.00 | 0.00 | 0.00 | 57 | 1018.5 |
| 20260510134532 | 56 | 181 | 2.0 | 11.0 | 0.00 | 0.00 | 0.00 | 56 | 1018.6 |
| 20260510133037 | 55 | 185 | 5.0 | 12.0 | 0.00 | 0.00 | 0.00 | 57 | 1018.7 |
| 20260510131525 | 54 | 327 | 2.0 | 12.0 | 0.00 | 0.00 | 0.00 | 58 | 1018.8 |
| 20260510130024 | 54 | 131 | 3.0 | 10.0 | 0.00 | 0.00 | 0.00 | 61 | 1018.8 |
| 20260510124522 | 54 | 7 | 2.0 | 10.0 | 0.00 | 0.00 | 0.00 | 60 | 1019.0 |
| 20260510123020 | 53 | 337 | 3.0 | 9.0 | 0.00 | 0.00 | 0.00 | 60 | 1019.2 |
| 20260510121518 | 53 | 47 | 2.0 | 13.0 | 0.00 | 0.00 | 0.00 | 62 | 1019.3 |
| 20260510120022 | 53 | 169 | 4.0 | 11.0 | 0.00 | 0.00 | 0.00 | 63 | 1019.4 |
| 20260510114521 | 53 | 290 | 4.0 | 11.0 | 0.00 | 0.00 | 0.00 | 64 | 1019.5 |
| 20260510113013 | 53 | 124 | 5.0 | 10.0 | 0.00 | 0.00 | 0.00 | 64 | 1019.6 |
| 20260510111512 | 52 | 172 | 3.0 | 12.0 | 0.00 | 0.00 | 0.00 | 66 | 1019.7 |
| 20260510110012 | 52 | 331 | 3.0 | 10.0 | 0.00 | 0.00 | 0.00 | 68 | 1019.7 |
| 20260510104508 | 51 | 208 | 2.0 | 12.0 | 0.00 | 0.00 | 0.00 | 71 | 1019.9 |
| 20260510103006 | 51 | 158 | 2.0 | 11.0 | 0.00 | 0.00 | 0.00 | 73 | 1020.0 |
| 20260510101504 | 51 | 161 | 2.0 | 11.0 | 0.00 | 0.00 | 0.00 | 74 | 1019.9 |
| 20260510100007 | 51 | 139 | 2.0 | 11.0 | 0.00 | 0.00 | 0.00 | 73 | 1019.9 |
| 20260510094504 | 51 | 337 | 2.0 | 9.0 | 0.00 | 0.00 | 0.00 | 74 | 1020.0 |
| 20260510093059 | 50 | 39 | 3.0 | 10.0 | 0.00 | 0.00 | 0.00 | 75 | 1020.0 |
| 20260510091601 | 50 | 337 | 3.0 | 11.0 | 0.00 | 0.00 | 0.00 | 75 | 1020.1 |
| 20260510090101 | 49 | 150 | 4.0 | 11.0 | 0.00 | 0.00 | 0.00 | 76 | 1020.3 |
| 20260510084558 | 49 | 213 | 2.0 | 15.0 | 0.00 | 0.00 | 0.00 | 78 | 1020.3 |
| 20260510083056 | 49 | 112 | 3.0 | 10.0 | 0.00 | 0.00 | 0.00 | 78 | 1020.4 |
| 20260510081555 | 48 | 81 | 3.0 | 14.0 | 0.00 | 0.00 | 0.00 | 79 | 1020.4 |
| 20260510080052 | 48 | 148 | 3.0 | 8.0 | 0.00 | 0.00 | 0.00 | 80 | 1020.5 |
| 20260510074553 | 48 | 210 | 3.0 | 11.0 | 0.00 | 0.00 | 0.00 | 80 | 1020.5 |
| 20260510073106 | 48 | 106 | 3.0 | 15.0 | 0.00 | 0.00 | 0.00 | 81 | 1020.7 |
| 20260510071558 | 48 | 11 | 1.0 | 6.0 | 0.00 | 0.00 | 0.00 | 82 | 1020.6 |
| 20260510070050 | 48 | 184 | 2.0 | 9.0 | 0.00 | 0.00 | 0.00 | 82 | 1020.6 |
| 20260510064556 | 48 | 176 | 2.0 | 8.0 | 0.00 | 0.00 | 0.00 | 83 | 1020.5 |
| 20260510063048 | 48 | 170 | 2.0 | 7.0 | 0.00 | 0.00 | 0.00 | 83 | 1020.4 |
| 20260510061549 | 48 | 340 | 2.0 | 10.0 | 0.00 | 0.00 | 0.00 | 83 | 1020.0 |
| 20260510060046 | 47 | 110 | 2.0 | 9.0 | 0.00 | 0.00 | 0.00 | 83 | 1020.0 |
| 20260510054544 | 47 | 127 | 1.0 | 10.0 | 0.00 | 0.00 | 0.00 | 84 | 1020.0 |
| 20260510053042 | 47 | 129 | 1.0 | 9.0 | 0.00 | 0.00 | 0.00 | 84 | 1020.0 |
| 20260510051545 | 47 | 91 | 1.0 | 8.0 | 0.00 | 0.00 | 0.00 | 85 | 1020.0 |
| 20260510050042 | 47 | 152 | 1.0 | 10.0 | 0.00 | 0.00 | 0.00 | 86 | 1020.1 |
| 20260510044548 | 47 | 120 | 0.0 | 7.0 | 0.00 | 0.00 | 0.00 | 86 | 1020.3 |
| 20260510043038 | 47 | 146 | 1.0 | 7.0 | 0.00 | 0.00 | 0.00 | 86 | 1020.0 |
| 20260510041537 | 47 | 99 | 3.0 | 9.0 | 0.00 | 0.00 | 0.00 | 86 | 1020.1 |
| 20260510040035 | 47 | 176 | 1.0 | 6.0 | 0.00 | 0.00 | 0.00 | 86 | 1020.1 |
| 20260510034536 | 47 | 235 | 1.0 | 6.0 | 0.00 | 0.00 | 0.00 | 87 | 1020.3 |
| 20260510033033 | 47 | 186 | 1.0 | 7.0 | 0.00 | 0.00 | 0.00 | 86 | 1020.4 |
| 20260510031533 | 47 | 167 | 1.0 | 6.0 | 0.00 | 0.00 | 0.00 | 86 | 1020.6 |
| 20260510030031 | 47 | 131 | 2.0 | 7.0 | 0.00 | 0.00 | 0.00 | 86 | 1020.5 |
| 20260510024527 | 47 | 196 | 3.0 | 7.0 | 0.00 | 0.00 | 0.00 | 85 | 1020.6 |
| 20260510023025 | 47 | 164 | 0.0 | 6.0 | 0.00 | 0.00 | 0.00 | 86 | 1020.6 |
| 20260510021534 | 47 | 167 | 2.0 | 8.0 | 0.00 | 0.00 | 0.00 | 86 | 1020.9 |
| 20260510020024 | 47 | 194 | 0.0 | 7.0 | 0.00 | 0.00 | 0.00 | 86 | 1020.7 |
| 20260510014523 | 47 | 234 | 1.0 | 10.0 | 0.00 | 0.00 | 0.00 | 86 | 1020.7 |
| 20260510013023 | 47 | 124 | 1.0 | 6.0 | 0.00 | 0.00 | 0.00 | 86 | 1020.5 |
| 20260510011521 | 47 | 121 | 1.0 | 6.0 | 0.00 | 0.00 | 0.00 | 87 | 1020.7 |
| 20260510010019 | 47 | 169 | 2.0 | 8.0 | 0.00 | 0.00 | 0.00 | 86 | 1020.6 |
| 20260510004518 | 47 | 347 | 2.0 | 8.0 | 0.00 | 0.00 | 0.00 | 86 | 1020.6 |
| 20260510003018 | 47 | 167 | 2.0 | 8.0 | 0.00 | 0.00 | 0.00 | 85 | 1020.5 |
| 20260510001513 | 47 | 154 | 1.0 | 7.0 | 0.00 | 0.00 | 0.00 | 84 | 1020.6 |
| 20260510000017 | 47 | 36 | 0.0 | 5.0 | 0.00 | 0.00 | 0.00 | 82 | 1020.7 |
| 20260509234510 | 47 | 153 | 2.0 | 6.0 | 0.00 | 0.00 | 0.00 | 80 | 1020.7 |
| 20260509233007 | 48 | 82 | 1.0 | 5.0 | 0.00 | 0.00 | 0.00 | 77 | 1020.8 |
| 20260509231504 | 48 | 130 | 1.0 | 8.0 | 0.00 | 0.00 | 0.00 | 74 | 1020.9 |
| 20260509230002 | 49 | 89 | 1.0 | 5.0 | 0.00 | 0.00 | 0.00 | 72 | 1020.9 |
| 20260509224605 | 49 | 149 | 1.0 | 6.0 | 0.00 | 0.00 | 0.00 | 71 | 1020.9 |
| 20260509223106 | 50 | 138 | 1.0 | 7.0 | 0.00 | 0.00 | 0.00 | 68 | 1020.8 |
| 20260509221606 | 51 | 37 | 1.0 | 10.0 | 0.00 | 0.00 | 0.00 | 65 | 1020.6 |
| 20260509220100 | 51 | 78 | 1.0 | 6.0 | 0.00 | 0.00 | 0.00 | 60 | 1020.6 |
| 20260509214607 | 52 | 111 | 1.0 | 6.0 | 0.00 | 0.00 | 0.00 | 54 | 1020.4 |
| 20260509213056 | 53 | 122 | 1.0 | 6.0 | 0.00 | 0.00 | 0.00 | 54 | 1020.3 |
| 20260509211559 | 54 | 150 | 0.0 | 6.0 | 0.00 | 0.00 | 0.00 | 56 | 1020.0 |
| 20260509210114 | 54 | 191 | 1.0 | 5.0 | 0.00 | 0.00 | 0.00 | 52 | 1019.8 |
| 20260509204558 | 55 | 133 | 0.0 | 7.0 | 0.00 | 0.00 | 0.00 | 49 | 1019.7 |
| 20260509203055 | 56 | 184 | 0.0 | 3.0 | 0.00 | 0.00 | 0.00 | 49 | 1019.5 |
| 20260509201601 | 56 | 124 | 0.0 | 7.0 | 0.00 | 0.00 | 0.00 | 50 | 1019.5 |
| 20260509194553 | 57 | 201 | 1.0 | 5.0 | 0.00 | 0.00 | 0.00 | 50 | 1019.1 |
| 20260509193052 | 58 | 164 | 1.0 | 7.0 | 0.00 | 0.00 | 0.00 | 50 | 1018.9 |
| 20260509191554 | 59 | 131 | 0.0 | 4.0 | 0.00 | 0.00 | 0.00 | 50 | 1018.8 |
| 20260509190106 | 60 | 137 | 0.0 | 5.0 | 0.00 | 0.00 | 0.00 | 49 | 1018.6 |
| 20260509184551 | 61 | 53 | 2.0 | 7.0 | 0.00 | 0.00 | 0.00 | 47 | 1018.6 |
| 20260509183049 | 62 | 52 | 1.0 | 7.0 | 0.00 | 0.00 | 0.00 | 49 | 1018.5 |
| 20260509181550 | 63 | 331 | 0.0 | 6.0 | 0.00 | 0.00 | 0.00 | 48 | 1018.3 |
| 20260509180052 | 64 | 146 | 2.0 | 10.0 | 0.00 | 0.00 | 0.00 | 46 | 1018.2 |
| 20260509174546 | 64 | 152 | 1.0 | 6.0 | 0.00 | 0.00 | 0.00 | 44 | 1018.2 |